[[{"header":{"parameterUnit":"m.s-1","parameterCategory":1,"la1":30.2991,"la2":30.254,"lo1":-89.0895,"lo2":-89.0444,"dy":0.0017,"dx":0.0017,"nx":28,"ny":28,"refTime":"2024-03-27T21:00:00:Z","depth":0,"parameterNumber":2,"parameterNumberName":"U-component_of_WINDS"},"data":[0,0,0,0,0,0,0,0,0,0,0,0,0,0,0,0,0,0,0,0,0,0,0,0,0,0,0,0,0,0,0,0,0,0,0,0,0,0,0,0,0,0,0,0,0,0,0,0,0,0,0,0,0,0,0,0,0,0,-0.0293,-0.0293,0,-0.0287,-0.0287,-0.0287,-0.0269,-0.0269,-0.0268,-0.0268,-0.0262,-0.0262,-0.0263,0,0,0,0,0,0,0,0,0,0,0,0,0,-0.0288,-0.0289,-0.0293,-0.0293,-0.0293,-0.0287,-0.0287,-0.0287,-0.0269,-0.0269,-0.0268,-0.0268,-0.0262,-0.0262,-0.0263,0,0,0,0,0,0,0,0,0,0,0,0,0,-0.0287,-0.0289,-0.0293,-0.0283,-0.0282,-0.0287,-0.0287,-0.0287,-0.0269,-0.0269,-0.0268,-0.0267,-0.0262,-0.0262,-0.0263,-0.0276,0,0,-0.0264,-0.0264,0,0,0,0,0,0,0,0,-0.0287,-0.0287,-0.0285,-0.0284,-0.0283,-0.0278,-0.0283,-0.0283,-0.0269,-0.0274,-0.0268,-0.0267,-0.0268,-0.0268,-0.0268,-0.0276,-0.0276,-0.0264,-0.0264,-0.0264,-0.0264,0,0,0,0,0,0,0,-0.0287,-0.0288,-0.0291,-0.0285,-0.0284,-0.0279,-0.0278,-0.0283,-0.0274,-0.0274,-0.0272,-0.0272,-0.0267,-0.0268,-0.0268,-0.0276,-0.0264,-0.0264,-0.0264,-0.0264,-0.0294,-0.0294,0,0,0,0,0,0,-0.0289,-0.0288,-0.0291,-0.029,-0.0284,-0.0279,-0.0279,-0.028,-0.0274,-0.0273,-0.0272,-0.0271,-0.0267,-0.0267,-0.0267,-0.0283,-0.0264,-0.0264,-0.0264,-0.0293,-0.0294,-0.0294,0,0,0,0,0,0,-0.0289,-0.0289,-0.0291,-0.0289,-0.0289,-0.028,-0.0282,-0.028,-0.0281,-0.0273,-0.0272,-0.0274,-0.0267,-0.0267,-0.0274,-0.0282,-0.0264,-0.0265,-0.0292,-0.0293,-0.0294,-0.0314,0,0,0,0,0,0,-0.0289,-0.0289,-0.0295,-0.0289,-0.0289,-0.0298,-0.0283,-0.0281,-0.0281,-0.0279,-0.0275,-0.0273,-0.0266,-0.0274,-0.0274,-0.0282,-0.0265,-0.0292,-0.0293,-0.0294,-0.0312,-0.0315,-0.0318,0,0,0,0,0,-0.0289,-0.0301,-0.0295,-0.0296,-0.0295,-0.0299,-0.0298,-0.029,-0.0282,-0.0287,-0.0282,-0.0274,-0.0281,-0.0274,-0.0275,-0.0283,-0.0291,-0.0292,-0.0294,-0.0311,-0.0315,-0.0317,0,0,0,0,0,0,-0.0309,-0.03,-0.0294,-0.0304,-0.0302,-0.0296,-0.0302,-0.0294,-0.0294,-0.0293,-0.0282,-0.0281,-0.029,-0.0287,-0.028,-0.0296,-0.0285,-0.0286,-0.0297,-0.0301,-0.0303,-0.0304,-0.0265,0,0,0,0,0,-0.0314,-0.0318,-0.031,-0.032,-0.0319,-0.0311,-0.0312,-0.0305,-0.0303,-0.0302,-0.0298,-0.0295,-0.0297,-0.0299,-0.03,-0.0311,-0.031,-0.0317,-0.032,-0.0322,-0.0324,-0.0329,-0.0332,-0.0299,-0.0299,-0.0299,0,0,-0.0326,-0.0322,-0.0325,-0.0324,-0.0321,-0.0325,-0.031,-0.0315,-0.0317,-0.0303,-0.0309,-0.0305,-0.0302,-0.0311,-0.0315,-0.031,-0.0332,-0.0324,-0.0326,-0.0326,-0.033,-0.0334,-0.0336,-0.03,-0.03,-0.0299,0,0,-0.0349,-0.0346,-0.0354,-0.0352,-0.0348,-0.0342,-0.0344,-0.0338,-0.0335,-0.0341,-0.033,-0.0332,-0.0336,-0.0334,-0.0333,-0.0354,-0.0346,-0.0354,-0.0368,-0.0374,-0.0376,-0.0378,-0.0386,-0.0388,-0.0356,-0.0356,-0.0356,0,-0.0365,-0.0369,-0.0359,-0.0364,-0.0364,-0.035,-0.0358,-0.0356,-0.0353,-0.0353,-0.0346,-0.0349,-0.0346,-0.0354,-0.0359,-0.0359,-0.0361,-0.0355,-0.0377,-0.0379,-0.0381,-0.0387,-0.039,-0.0357,-0.0357,-0.0357,-0.0357,0,-0.0388,-0.0392,-0.0398,-0.0395,-0.0395,-0.0402,-0.0392,-0.0394,-0.0387,-0.0381,-0.0387,-0.0382,-0.0382,-0.0383,-0.0377,-0.039,-0.0387,-0.0378,-0.0367,-0.0385,-0.0391,-0.0394,-0.0359,-0.0358,-0.0358,-0.0358,0,0,-0.0426,-0.0415,-0.0418,-0.0416,-0.041,-0.0413,-0.0418,-0.0417,-0.0418,-0.0416,-0.042,-0.0422,-0.0414,-0.0413,-0.0406,-0.0411,-0.0427,-0.0402,-0.0401,-0.0407,-0.0441,-0.0447,-0.045,-0.0421,-0.0421,-0.0422,-0.0441,0,-0.0448,-0.0456,-0.0446,-0.0457,-0.0459,-0.0445,-0.045,-0.0446,-0.0441,-0.0442,-0.0436,-0.0438,-0.0427,-0.0426,-0.043,-0.0424,-0.0433,-0.0422,-0.0424,-0.0425,-0.0426,-0.0454,-0.0461,-0.048,-0.0443,-0.0444,-0.0444,0,-0.0475,-0.0474,-0.0484,-0.0476,-0.0477,-0.0481,-0.0479,-0.0481,-0.0476,-0.0472,-0.047,-0.0461,-0.0465,-0.0453,-0.0458,-0.0451,-0.0451,-0.0448,-0.0448,-0.0449,-0.0436,-0.0455,-0.0485,-0.0488,-0.0448,-0.0447,-0.0447,0,-0.0501,-0.0502,-0.0508,-0.0507,-0.0498,-0.0501,-0.0497,-0.0492,-0.0492,-0.049,-0.0489,-0.0488,-0.0487,-0.0486,-0.0477,-0.0469,-0.0483,-0.047,-0.0479,-0.0479,-0.0483,-0.0483,-0.0514,-0.0483,-0.0483,-0.0483,-0.0482,0,-0.0527,-0.0534,-0.0519,-0.0523,-0.0531,-0.0519,-0.0526,-0.0521,-0.0516,-0.0518,-0.0506,-0.0508,-0.0495,-0.0496,-0.0489,-0.0494,-0.0493,-0.049,-0.0488,-0.0491,-0.0492,-0.0492,-0.049,-0.0483,-0.0483,-0.0483,-0.0483,0,-0.0559,-0.0549,-0.0555,-0.0545,-0.0543,-0.0548,-0.054,-0.0543,-0.0536,-0.0539,-0.0539,-0.0529,-0.0529,-0.0519,-0.0517,-0.0512,-0.052,-0.0516,-0.0522,-0.0521,-0.053,-0.0529,-0.0562,-0.0566,-0.0532,-0.0532,-0.0532,0,-0.0576,-0.0581,-0.0572,-0.0572,-0.0569,-0.057,-0.057,-0.0558,-0.0557,-0.0552,-0.0555,-0.0554,-0.0553,-0.0554,-0.0545,-0.0544,-0.0539,-0.0551,-0.0539,-0.0542,-0.054,-0.054,-0.054,-0.0554,-0.0554,-0.0555,-0.0555,0,-0.0609,-0.0603,-0.0603,-0.06,-0.06,-0.0597,-0.0594,-0.0595,-0.0582,-0.0582,-0.0582,-0.0581,-0.0578,-0.0577,-0.0574,-0.057,-0.056,-0.0558,-0.056,-0.0564,-0.0568,-0.0566,-0.0529,-0.0558,-0.0558,-0.0557,-0.0557,-0.0557,-0.0634,-0.0637,-0.0631,-0.063,-0.0626,-0.0623,-0.0625,-0.0618,-0.0618,-0.0615,-0.0607,-0.0608,-0.0602,-0.0596,-0.0593,-0.0593,-0.0587,-0.059,-0.0591,-0.0592,-0.0593,-0.0567,-0.0592,-0.0592,-0.0592,-0.0592,-0.0592,0,-0.0665,-0.066,-0.066,-0.0655,-0.0655,-0.0645,-0.064,-0.064,-0.0641,-0.0636,-0.0635,-0.0634,-0.0632,-0.0624,-0.0621,-0.0623,-0.0618,-0.0622,-0.0623,-0.0622,-0.0599,-0.0597,-0.0626,-0.0626,-0.0626,-0.0626,-0.0626,-0.0626,-0.0682,-0.0687,-0.0681,-0.0683,-0.0678,-0.0678,-0.0676,-0.0673,-0.0669,-0.0668,-0.0667,-0.0661,-0.0654,-0.0651,-0.0649,-0.0646,-0.0646,-0.0652,-0.0648,-0.0627,-0.0623,-0.062,-0.0619,-0.0652,-0.0652,-0.067,-0.067,-0.0671]},{"header":{"parameterUnit":"m.s-1","parameterCategory":1,"la1":30.2991,"la2":30.254,"lo1":-89.0895,"lo2":-89.0444,"dy":0.0017,"dx":0.0017,"nx":28,"ny":28,"refTime":"2024-03-27T21:00:00:Z","depth":0,"parameterNumber":3,"parameterNumberName":"V-component_of_WINDS"},"data":[0,0,0,0,0,0,0,0,0,0,0,0,0,0,0,0,0,0,0,0,0,0,0,0,0,0,0,0,0,0,0,0,0,0,0,0,0,0,0,0,0,0,0,0,0,0,0,0,0,0,0,0,0,0,0,0,0,0,-3.818,-3.8181,0,-3.8283,-3.8284,-3.8286,-3.8278,-3.8276,-3.8275,-3.8273,-3.8376,-3.838,-3.8385,0,0,0,0,0,0,0,0,0,0,0,0,0,-3.7974,-3.7978,-3.818,-3.8181,-3.8182,-3.8283,-3.8284,-3.8286,-3.8278,-3.8276,-3.8274,-3.8273,-3.8375,-3.838,-3.8385,0,0,0,0,0,0,0,0,0,0,0,0,0,-3.8069,-3.7979,-3.818,-3.8191,-3.8193,-3.8283,-3.8285,-3.8286,-3.8279,-3.8276,-3.8274,-3.8272,-3.8373,-3.8379,-3.8386,-3.847,0,0,-3.8405,-3.8407,0,0,0,0,0,0,0,0,-3.8063,-3.8076,-3.8188,-3.819,-3.8193,-3.8265,-3.825,-3.8348,-3.8279,-3.8246,-3.8273,-3.8271,-3.8341,-3.835,-3.8374,-3.8475,-3.8479,-3.8405,-3.8409,-3.8412,-3.8414,0,0,0,0,0,0,0,-3.8057,-3.8072,-3.8221,-3.8189,-3.8192,-3.819,-3.8201,-3.8268,-3.8305,-3.8249,-3.8248,-3.8261,-3.8342,-3.8368,-3.8377,-3.8481,-3.8405,-3.8411,-3.8414,-3.8417,-3.8657,-3.8659,0,0,0,0,0,0,-3.8048,-3.8066,-3.8217,-3.8224,-3.8121,-3.8196,-3.8208,-3.8244,-3.8304,-3.8311,-3.8263,-3.826,-3.8359,-3.8369,-3.838,-3.8484,-3.8412,-3.8418,-3.8421,-3.8654,-3.8657,-3.866,0,0,0,0,0,0,-3.8044,-3.8062,-3.8213,-3.8145,-3.8164,-3.8202,-3.8243,-3.8248,-3.8274,-3.8315,-3.8321,-3.8283,-3.8357,-3.8371,-3.8448,-3.8487,-3.842,-3.8426,-3.8651,-3.8655,-3.8659,-3.8691,0,0,0,0,0,0,-3.8038,-3.806,-3.8093,-3.8146,-3.8168,-3.828,-3.8245,-3.8251,-3.8285,-3.8283,-3.8336,-3.8342,-3.8357,-3.8439,-3.8454,-3.8494,-3.8431,-3.8648,-3.8653,-3.8658,-3.8686,-3.8695,-3.8703,0,0,0,0,0,-3.803,-3.8097,-3.8095,-3.8113,-3.821,-3.8282,-3.8295,-3.8311,-3.8288,-3.8321,-3.8348,-3.834,-3.848,-3.8447,-3.8464,-3.8507,-3.8645,-3.8652,-3.8657,-3.8683,-3.8693,-3.8703,0,0,0,0,0,0,-3.8046,-3.8104,-3.8102,-3.8188,-3.8231,-3.8281,-3.8323,-3.8322,-3.8371,-3.8366,-3.8383,-3.8395,-3.8473,-3.8497,-3.8459,-3.8592,-3.856,-3.8569,-3.8573,-3.8584,-3.8592,-3.8584,-3.8436,0,0,0,0,0,-3.806,-3.8115,-3.8162,-3.8233,-3.8255,-3.8286,-3.8318,-3.8327,-3.8371,-3.8388,-3.8421,-3.8463,-3.8517,-3.8552,-3.8603,-3.869,-3.8701,-3.8728,-3.8736,-3.8743,-3.8751,-3.8799,-3.8811,-3.868,-3.868,-3.868,0,0,-3.8088,-3.8127,-3.816,-3.8238,-3.8271,-3.8327,-3.8301,-3.8361,-3.8402,-3.8397,-3.8472,-3.8497,-3.8546,-3.8628,-3.8666,-3.8651,-3.8789,-3.875,-3.8755,-3.876,-3.8806,-3.8818,-3.8829,-3.8684,-3.8683,-3.8682,0,0,-3.8169,-3.8204,-3.8267,-3.8302,-3.8354,-3.8375,-3.839,-3.8441,-3.8458,-3.8534,-3.8532,-3.8581,-3.8673,-3.8708,-3.8737,-3.8832,-3.8827,-3.8849,-3.8892,-3.8938,-3.8949,-3.8958,-3.8992,-3.9004,-3.8857,-3.8857,-3.8857,0,-3.8197,-3.8282,-3.8299,-3.8361,-3.8395,-3.8394,-3.8458,-3.8491,-3.8557,-3.858,-3.8563,-3.8679,-3.8712,-3.8802,-3.8826,-3.885,-3.8868,-3.8842,-3.8946,-3.8955,-3.8964,-3.8997,-3.901,-3.8859,-3.8859,-3.8858,-3.8858,0,-3.8315,-3.8374,-3.8418,-3.8484,-3.8523,-3.8585,-3.8611,-3.8649,-3.8655,-3.8676,-3.8754,-3.8793,-3.8853,-3.8875,-3.8881,-3.8967,-3.8956,-3.8942,-3.891,-3.8979,-3.901,-3.9022,-3.8862,-3.8861,-3.8861,-3.886,0,0,-3.8407,-3.8482,-3.8498,-3.8528,-3.8587,-3.8632,-3.8694,-3.8754,-3.8786,-3.8832,-3.8884,-3.8963,-3.895,-3.8984,-3.8994,-3.9035,-3.9108,-3.9016,-3.9017,-3.9032,-3.9206,-3.9216,-3.923,-3.9105,-3.9108,-3.911,-3.9202,0,-3.8493,-3.8604,-3.8622,-3.872,-3.8775,-3.8776,-3.883,-3.8871,-3.8894,-3.8943,-3.8967,-3.9023,-3.9002,-3.9023,-3.9064,-3.9091,-3.9143,-3.9084,-3.9154,-3.9156,-3.9141,-3.9246,-3.9257,-3.9342,-3.9214,-3.9216,-3.9218,0,-3.8608,-3.8659,-3.8762,-3.8814,-3.8838,-3.8886,-3.8943,-3.899,-3.9037,-3.9051,-3.9089,-3.9094,-3.9158,-3.9124,-3.9213,-3.9172,-3.9202,-3.9219,-3.9223,-3.923,-3.9191,-3.9256,-3.9369,-3.9382,-3.9237,-3.9235,-3.9234,0,-3.8665,-3.8759,-3.8833,-3.8859,-3.8921,-3.8955,-3.8983,-3.9028,-3.9063,-3.9112,-3.9135,-3.919,-3.9221,-3.9264,-3.9283,-3.9257,-3.9371,-3.9338,-3.9383,-3.9383,-3.9407,-3.9405,-3.9526,-3.9426,-3.9426,-3.9426,-3.9426,0,-3.8759,-3.8822,-3.886,-3.8905,-3.8976,-3.8996,-3.9066,-3.9092,-3.9132,-3.9182,-3.9186,-3.9233,-3.9257,-3.9307,-3.9323,-3.9394,-3.9408,-3.942,-3.9423,-3.942,-3.9418,-3.9439,-3.9433,-3.9429,-3.9428,-3.9428,-3.9427,0,-3.8834,-3.8862,-3.8943,-3.8996,-3.9011,-3.9061,-3.9106,-3.915,-3.9173,-3.9236,-3.9252,-3.9288,-3.9347,-3.9372,-3.9444,-3.9455,-3.9537,-3.9536,-3.9521,-3.9522,-3.9566,-3.9562,-3.9705,-3.9725,-3.9612,-3.9613,-3.9614,0,-3.8892,-3.8941,-3.9,-3.9035,-3.9064,-3.912,-3.9156,-3.9178,-3.9215,-3.9273,-3.931,-3.937,-3.9419,-3.9515,-3.9546,-3.9602,-3.9602,-3.9649,-3.961,-3.9605,-3.9603,-3.9599,-3.9604,-3.9655,-3.9656,-3.9657,-3.9658,0,-3.8992,-3.9004,-3.9057,-3.9115,-3.9159,-3.9205,-3.925,-3.9278,-3.9307,-3.9349,-3.9411,-3.9449,-3.9524,-3.9584,-3.9642,-3.9669,-3.9668,-3.967,-3.9683,-3.968,-3.967,-3.9676,-3.954,-3.9666,-3.9666,-3.9665,-3.9665,-3.9664,-3.9061,-3.9105,-3.9154,-3.9212,-3.9249,-3.9292,-3.9336,-3.9365,-3.9418,-3.9481,-3.9491,-3.9557,-3.9603,-3.9681,-3.9711,-3.9763,-3.9751,-3.977,-3.9775,-3.9779,-3.9782,-3.9662,-3.9773,-3.9773,-3.9773,-3.9773,-3.9773,0,-3.9161,-3.9193,-3.9247,-3.9311,-3.9358,-3.9355,-3.9405,-3.9444,-3.9502,-3.9546,-3.9595,-3.9666,-3.9724,-3.9761,-3.982,-3.9854,-3.9855,-3.9868,-3.9866,-3.9872,-3.979,-3.9772,-3.9866,-3.9866,-3.9866,-3.9866,-3.9866,-3.9866,-3.9219,-3.9293,-3.9311,-3.9403,-3.9434,-3.9501,-3.9529,-3.9569,-3.9604,-3.9684,-3.9733,-3.9757,-3.9798,-3.986,-3.9913,-3.9922,-3.9943,-3.9957,-3.9966,-3.9888,-3.9878,-3.9869,-3.9852,-3.9962,-3.9962,-4.0044,-4.0045,-4.0045]}]]